• Join FlightAware (Why Join?)
  • Login
  • US Flag 
12:16PM EST


 

Airport Tracker/Info


-or-


 

Live Flight TrackerFlight Track Log ✈ UAL4976 ✈ 20-Jul-2014 ✈ KBIL - KDEN

Flight Track Log - Related Links

Times and Time Zones

All times are in EDT time to prevent confusion due to time zone crossing. See the UAL4976 flight status page for this flight to view local times or setup timezone preferences in your user account.

Time Position Orientation Groundspeed Altitude Reporting Facility
EDT Latitude Longitude Course Direction KTS MPH feet Rate Location/Type
12:10PM 45.8433 -108.6967 286° West 204 235 8,000  Level Salt Lake Center
12:11PM 45.7950 -108.7153 195° South 239 275 9,500 1,403 Climbing Salt Lake Center
12:12PM 45.7225 -108.6531 149° Southeast 292 336 10,900 1,597 Climbing Salt Lake Center
12:13PM 45.6458 -108.6058 157° South 302 348 12,800 1,548 Climbing Salt Lake Center
12:14PM 45.1507 -108.1578 159° South  Level FlightAware Approximate
12:14PM 45.5558 -108.5503 157° South 329 379 14,100  Level Salt Lake Center
12:15PM 45.4603 -108.4928 157° South 345 397 15,900 1,500 Climbing Salt Lake Center
12:16PM 45.3711 -108.4394 157° South 349 402 17,200 1,306 Climbing Salt Lake Center
12:17PM 45.2719 -108.3797 157° South 358 412 18,600 1,161 Climbing Salt Lake Center
12:18PM 45.1792 -108.3253 158° South 366 421 19,600 1,104 Climbing Salt Lake Center
12:19PM 45.0789 -108.2653 157° South 365 420 20,900 1,152 Climbing Salt Lake Center
12:20PM 44.9867 -108.2106 157° South 361 415 22,000 968 Climbing Salt Lake Center
12:21PM 44.8906 -108.1547 158° South 370 426 22,900 632 Climbing Salt Lake Center
12:23PM 44.7108 -108.0481 158° South 391 450 23,800 526 Climbing Denver Center
12:24PM 44.5858 -107.9750 157° South 408 470 24,400 532 Climbing Denver Center
12:25PM 44.4811 -107.9139 157° South 409 471 24,900 484 Climbing Denver Center
12:26PM 44.3744 -107.8522 158° South 411 473 25,400 484 Climbing Denver Center
12:27PM 44.2669 -107.7908 158° South 416 479 25,900 672 Climbing Denver Center
12:28PM 44.1603 -107.7278 157° South 417 480 26,800 960 Climbing Denver Center
12:29PM 44.0361 -107.6547 157° South 408 470 27,900 1,043 Climbing Denver Center
12:31PM 43.9142 -107.5897 159° South 392 451 29,200 913 Climbing Salt Lake Center
12:32PM 43.8161 -107.5336 158° South 385 443 30,000 629 Climbing Salt Lake Center
12:33PM 43.7161 -107.4772 158° South 385 443 30,500 484 Climbing Salt Lake Center
12:34PM 43.6147 -107.4211 158° South 388 447 31,000 240 Climbing Salt Lake Center
12:35PM 43.4917 -107.3492 157° South 397 457 31,000  Level Salt Lake Center
12:36PM 43.3825 -107.2881 158° South 420 483 31,000  Level Salt Lake Center
12:37PM 43.2933 -107.2381 158° South 430 495 31,000  Level Denver Center
12:38PM 43.1808 -107.1733 157° South 434 499 31,000  Level Denver Center
12:39PM 43.0569 -107.1061 158° South 440 506 31,000  Level Denver Center
12:40PM 42.9478 -107.0453 158° South 445 512 31,000  Level Denver Center
12:41PM 42.8217 -106.9758 158° South 443 510 31,000  Level Denver Center
12:42PM 42.7122 -106.9175 159° South 439 505 31,000  Level Denver Center
12:43PM 42.5853 -106.8478 158° South 440 506 31,000  Level Denver Center
12:44PM 42.4767 -106.7892 158° South 440 506 31,000  Level Denver Center
12:46PM 42.2411 -106.6608 158° South 434 499 31,000  Level Denver Center
12:47PM 42.1350 -106.6042 158° South 430 495 31,000  Level Denver Center
12:48PM 42.0103 -106.5383 159° South 430 495 31,000  Level Denver Center
12:49PM 41.8911 -106.4700 157° South 431 496 31,000  Level Denver Center
12:50PM 41.7947 -106.3894 148° Southeast 427 491 31,000  Level Denver Center
12:52PM 41.5808 -106.2164 149° Southeast 429 494 31,000 -290 Level Denver Center
12:53PM 41.4656 -106.1253 149° Southeast 429 494 30,100 -912 Descending Denver Center
12:54PM 41.3597 -106.0417 149° Southeast 457 526 29,100 -1,008 Descending Denver Center
12:55PM 41.2519 -105.9542 149° Southeast 470 541 28,000 -1,016 Descending Denver Center
12:56PM 41.1300 -105.8564 149° Southeast 465 535 27,000 -484 Descending Denver Center
12:57PM 41.0289 -105.7769 149° Southeast 447 514 27,000  Level Denver Center
12:59PM 40.8158 -105.6083 148° Southeast 431 496 27,000 -642 Level Denver Center
01:00PM 40.7158 -105.5300 149° Southeast 420 483 25,000 -2,592 Descending Denver Center
01:01PM 40.6050 -105.4372 148° Southeast 395 455 21,600 -2,758 Descending Denver Center
01:02PM 40.5406 -105.3253 127° Southeast 382 440 19,300 -2,177 Descending Denver Center
01:03PM 40.4819 -105.2161 125° Southeast 372 428 17,100 -2,032 Descending Denver Center
01:05PM 40.3467 -104.9986 129° Southeast 371 427 13,000 -1,323 Descending Denver Center
01:07PM 40.2825 -104.8922 128° Southeast 372 428 13,000 -290 Level Denver Center
01:08PM 40.2061 -104.8100 141° Southeast 332 382 12,400 -1,113 Descending Denver Center
01:09PM 40.1369 -104.7578 150° Southeast 297 342 10,700 -1,645 Descending Denver Center
01:10PM 40.0633 -104.7053 151° Southeast 282 325 9,000 -1,200 Descending Denver Center
01:11PM 40.0042 -104.6944 172° South 213 245 8,200 -1,248 Descending Denver Center
01:12PM 39.9531 -104.6958 181° South 171 197 6,400 -1,258 Descending Denver Center
01:13PM 39.9094 -104.6956 180° South 160 184 5,600 -532 Descending Denver Center
01:14PM 39.8756 -104.6950 179° South 123 142 5,300 -290 Descending Denver Center